"Timestamp","TZ","WindDir_Mean (deg)","WindSpd_Mean (km/h)","WindSpd_Min (km/h)","WindSpd_Max (km/h)","Temp_Mean (deg)","RH_Mean (%)","MSLP_Mean (hPa)","Rain_Acc (mm)","Rain_Intensity (mm/h)","Hail_Acc (hits/cm2)","Hail_Intensity (hits/cm2hr)","Solar_Mean (W/m2)"
2022/05/28 00:00:00.010,n,241,2.88,0.72,6.12,16.6,80.4,1015.62,0,0,0,0,0.021782
2022/05/28 00:01:00.000,n,149,4.32,3.24,5.04,16.6,80,1015.62,0,0,0,0,0.020065
2022/05/28 00:02:00.000,n,150,1.8,1.44,6.12,16.6,80,1015.52,0,0,0,0,0.021782
2022/05/28 00:03:00.002,n,164,2.52,0.72,5.76,16.5,79.9,1015.52,0,0,0,0,0.022659
2022/05/28 00:04:00.000,n,157,1.08,0.72,1.44,16.5,80.2,1015.52,0,0,0,0,0.022659
2022/05/28 00:05:00.000,n,141,2.16,1.44,2.52,16.5,80.1,1015.52,0,0,0,0,0.025253
2022/05/28 00:06:00.009,n,189,2.16,1.08,3.96,16.5,80.3,1015.52,0,0,0,0,0.020905
2022/05/28 00:07:00.007,n,138,1.44,0.36,3.96,16.5,80.2,1015.52,0,0,0,0,0.021782
2022/05/28 00:08:00.004,n,190,1.8,0.36,5.04,16.5,80.1,1015.52,0,0,0,0,0.019188
2022/05/28 00:09:00.002,n,200,2.88,0,4.68,16.5,80.2,1015.52,0,0,0,0,0.023537
2022/05/28 00:10:00.000,n,194,2.52,1.8,3.6,16.5,80.4,1015.52,0,0,0,0,0.020905
2022/05/28 00:11:00.000,n,154,2.16,0.72,6.84,16.5,80.4,1015.42,0,0,0,0,0.019188
2022/05/28 00:12:00.000,n,118,1.44,1.08,2.16,16.4,80.5,1015.42,0,0,0,0,0.020905
2022/05/28 00:13:00.006,n,154,4.68,0.72,6.48,16.4,80.7,1015.42,0,0,0,0,0.020065
2022/05/28 00:14:00.003,n,178,4.68,2.88,7.2,16.4,80.9,1015.42,0,0,0,0,0.019188
2022/05/28 00:15:00.000,n,171,3.24,0.36,5.76,16.4,81,1015.32,0,0,0,0,0.022659
2022/05/28 00:16:00.000,n,240,2.52,1.8,3.24,16.4,81,1015.32,0,0,0,0,0.020905
2022/05/28 00:17:00.011,n,322,3.24,0.72,6.84,16.4,81.1,1015.32,0,0,0,0,0.023537
2022/05/28 00:18:00.008,n,199,2.16,1.44,4.68,16.4,81.2,1015.22,0,0,0,0,0.018272
2022/05/28 00:19:00.000,n,221,1.8,0.36,5.76,16.3,81.1,1015.22,0,0,0,0,0.019188
2022/05/28 00:20:00.002,n,150,2.88,0.72,4.68,16.3,81.1,1015.22,0,0,0,0,0.020905
2022/05/28 00:21:00.000,n,166,2.52,0.72,5.76,16.3,81.1,1015.22,0,0,0,0,0.020905
2022/05/28 00:22:00.000,n,126,3.24,2.16,4.32,16.3,81.1,1015.22,0,0,0,0,0.021782
2022/05/28 00:23:00.000,n,172,2.52,0.36,5.76,16.3,81,1015.12,0,0,0,0,0.018272
2022/05/28 00:24:00.007,n,157,2.88,1.8,5.76,16.3,80.9,1015.12,0,0,0,0,0.020065
2022/05/28 00:25:00.004,n,218,2.88,1.8,3.96,16.3,81.3,1015.12,0,0,0,0,0.018272
2022/05/28 00:26:00.001,n,166,3.24,1.44,5.04,16.3,81.3,1015.12,0,0,0,0,0.027008
2022/05/28 00:27:00.010,n,292,1.8,1.44,2.52,16.3,81.1,1015.12,0,0,0,0,0.033989
2022/05/28 00:28:00.000,n,184,1.8,0.72,5.76,16.3,81,1015.02,0,0,0,0,0.035706
2022/05/28 00:29:00.000,n,116,3.24,1.8,3.6,16.3,81,1015.02,0,0,0,0,0.030479
2022/05/28 00:30:00.002,n,181,2.52,2.52,2.88,16.3,81.2,1015.02,0,0,0,0,0.02964
2022/05/28 00:31:00.000,n,169,1.8,0.72,5.76,16.3,81.4,1015.02,0,0,0,0,0.02964
2022/05/28 00:32:00.000,n,152,4.32,3.24,9,16.3,81.1,1015.02,0,0,0,0,0.02964
2022/05/28 00:33:00.009,n,149,3.24,0.72,5.76,16.200002,81.2,1014.92,0,0,0,0,0.031357
2022/05/28 00:34:00.006,n,86,2.52,1.08,6.12,16.200002,81.2,1014.92,0,0,0,0,0.02964
2022/05/28 00:35:00.003,n,165,4.68,1.8,6.84,16.200002,81.3,1014.92,0,0,0,0,0.02964
2022/05/28 00:36:00.000,n,182,3.96,1.8,7.2,16.1,81.4,1014.92,0,0,0,0,0.027008
2022/05/28 00:37:00.000,n,175,6.12,2.52,7.92,16.1,81.5,1014.82,0,0,0,0,0.02964
2022/05/28 00:38:00.000,n,166,5.04,4.32,9,16.1,81.5,1014.82,0,0,0,0,0.027847
2022/05/28 00:39:00.000,n,54,1.08,0.36,1.44,16.1,81.5,1014.82,0,0,0,0,0.030479
2022/05/28 00:40:00.005,n,145,3.24,2.88,3.6,16.1,81.4,1014.82,0,0,0,0,0.028763
2022/05/28 00:41:00.002,n,156,7.2,3.24,9,16.1,81.6,1014.82,0,0,0,0,0.027008
2022/05/28 00:42:00.000,n,162,4.32,2.88,8.28,16.1,81.6,1014.72,0,0,0,0,0.028763
2022/05/28 00:43:00.012,n,154,4.32,2.88,7.2,16.1,81.7,1014.72,0,0,0,0,0.028763
2022/05/28 00:44:00.008,n,162,5.04,2.16,6.84,16,81.8,1014.72,0,0,0,0,0.025291
2022/05/28 00:45:00.006,n,148,3.6,2.52,4.32,16,81.9,1014.72,0,0,0,0,0.027008
2022/05/28 00:46:00.000,n,158,5.04,3.6,9,16,81.9,1014.72,0,0,0,0,0.02964
2022/05/28 00:47:00.000,n,169,6.48,4.32,10.440002,16,82,1014.72,0,0,0,0,0.028763
2022/05/28 00:48:00.000,n,114,0,0,0.36,16,82,1014.72,0,0,0,0,0.027008
2022/05/28 00:49:00.000,n,157,5.4,1.8,7.2,16,82.1,1014.82,0,0,0,0,0.022659
2022/05/28 00:50:00.007,n,168,3.96,1.8,6.48,15.9,82.1,1014.82,0,0,0,0,0.023537
2022/05/28 00:51:00.004,n,257,0.72,0,1.44,15.9,82.2,1014.82,0,0,0,0,0.026131
2022/05/28 00:52:00.001,n,287,3.24,2.52,3.96,15.9,82.7,1014.82,0,0,0,0,0.025291
2022/05/28 00:53:00.014,n,83,2.16,1.44,3.24,16,82.9,1014.82,0,0,0,0,0.028763
2022/05/28 00:54:00.010,n,259,2.88,1.8,3.6,16,82.7,1014.82,0,0,0,0,0.02964
2022/05/28 00:55:00.000,n,280,3.6,2.88,5.04,16,82.4,1014.82,0,0,0,0,0.026131
2022/05/28 00:56:00.003,n,156,5.76,1.8,7.92,15.9,82.4,1014.82,0,0,0,0,0.027847
2022/05/28 00:57:00.000,n,238,3.24,1.8,3.96,15.9,82.4,1014.72,0,0,0,0,0.026131
2022/05/28 00:58:00.000,n,333,2.52,2.52,2.88,15.9,82.4,1014.82,0,0,0,0,0.023537
2022/05/28 00:59:00.000,n,149,2.52,2.16,2.88,15.9,82.3,1014.82,0,0,0,0,0.024414
2022/05/28 01:00:00.008,n,289,4.68,4.32,5.4,15.8,82.3,1014.82,0,0,0,0,0.02697
2022/05/28 01:01:00.001,n,248,2.16,1.44,2.88,15.8,82.3,1014.82,0,0,0,0,0.031357
2022/05/28 01:02:00.000,n,263,5.04,4.68,5.4,15.8,82.4,1014.82,0,0,0,0,0.033073
2022/05/28 01:03:00.012,n,284,3.96,3.6,4.32,15.8,82.6,1014.82,0,0,0,0,0.033951
2022/05/28 01:04:00.000,n,273,3.6,2.52,4.68,15.8,82.6,1014.82,0,0,0,0,0.029564
2022/05/28 01:05:00.000,n,33,1.8,0.36,4.32,15.8,82.6,1014.82,0,0,0,0,0.028725
2022/05/28 01:06:00.003,n,318,2.16,0.72,3.24,15.8,82.7,1014.82,0,0,0,0,0.030441
2022/05/28 01:07:00.000,n,292,7.2,6.48,7.92,15.8,82.7,1014.82,0,0,0,0,0.029564
2022/05/28 01:08:00.000,n,256,3.24,0.72,3.96,15.8,82.7,1014.82,0,0,0,0,0.029564
2022/05/28 01:09:00.009,n,277,5.4,4.68,6.12,15.7,82.7,1014.82,0,0,0,0,0.028725
2022/05/28 01:10:00.006,n,250,3.96,1.08,5.04,15.7,82.7,1014.82,0,0,0,0,0.026093
2022/05/28 01:11:00.003,n,214,2.16,1.08,3.24,15.7,82.7,1014.82,0,0,0,0,0.028725
2022/05/28 01:12:00.000,n,236,5.4,3.96,6.48,15.7,82.8,1014.82,0,0,0,0,0.031357
2022/05/28 01:13:00.000,n,279,6.12,5.4,7.2,15.7,82.8,1014.82,0,0,0,0,0.031357
2022/05/28 01:14:00.000,n,130,4.32,2.52,5.76,15.7,83,1014.72,0,0,0,0,0.031357
2022/05/28 01:15:00.000,n,350,2.16,0.36,5.4,15.7,82.9,1014.72,0,0,0,0,0.031357
2022/05/28 01:16:00.007,n,291,3.6,2.88,4.68,15.7,83.1,1014.72,0,0,0,0,0.030441
2022/05/28 01:17:00.008,n,323,1.44,1.08,3.24,15.7,83.4,1014.72,0,0,0,0,0.028725
2022/05/28 01:18:00.001,n,176,2.88,2.16,3.24,15.7,83.6,1014.62,0,0,0,0,0.025215
2022/05/28 01:19:00.000,n,44,2.16,0.72,5.4,15.7,83.3,1014.62,0,0,0,0,0.02697
2022/05/28 01:20:00.011,n,165,2.16,1.08,5.76,15.7,83.1,1014.62,0,0,0,0,0.027847
2022/05/28 01:21:00.009,n,214,4.32,2.88,6.12,15.7,83.1,1014.62,0,0,0,0,0.027847
2022/05/28 01:22:00.000,n,271,2.52,2.16,3.24,15.7,83.2,1014.62,0,0,0,0,0.02697
2022/05/28 01:23:00.002,n,217,2.88,0.36,4.32,15.7,83.3,1014.62,0,0,0,0,0.025215
2022/05/28 01:24:00.000,n,306,1.44,0.72,2.88,15.7,83.1,1014.62,0,0,0,0,0.030441
2022/05/28 01:25:00.000,n,225,2.16,0.36,5.76,15.7,82.9,1014.62,0,0,0,0,0.023499
2022/05/28 01:26:00.000,n,234,3.24,0.72,4.68,15.6,83,1014.62,0,0,0,0,0.027847
2022/05/28 01:27:00.009,n,280,4.32,3.96,4.68,15.6,82.9,1014.62,0,0,0,0,0.025291
2022/05/28 01:28:00.002,n,309,2.88,2.52,3.6,15.6,82.9,1014.62,0,0,0,0,0.033989
2022/05/28 01:29:00.000,n,246,6.12,2.52,7.56,15.6,82.9,1014.62,0,0,0,0,0.027885
2022/05/28 01:30:00.013,n,199,2.16,1.8,2.88,15.5,82.9,1014.52,0,0,0,0,0.027885
2022/05/28 01:31:00.000,n,252,7.92,4.32,9,15.5,82.8,1014.52,0,0,0,0,0.027885
2022/05/28 01:32:00.000,n,264,5.76,4.68,6.48,15.5,82.8,1014.52,0,0,0,0,0.030479
2022/05/28 01:33:00.000,n,173,2.16,0.36,4.32,15.5,82.8,1014.52,0,0,0,0,0.032234
2022/05/28 01:34:00.002,n,264,5.4,4.32,6.84,15.5,82.8,1014.52,0,0,0,0,0.02964
2022/05/28 01:35:00.000,n,252,3.6,1.44,4.32,15.5,82.8,1014.42,0,0,0,0,0.031357
2022/05/28 01:36:00.000,n,263,6.48,5.04,7.56,15.5,82.8,1014.42,0,0,0,0,0.03746
2022/05/28 01:37:00.010,n,200,2.52,1.44,3.6,15.5,82.8,1014.42,0,0,0,0,0.026131
2022/05/28 01:38:00.008,n,265,6.84,5.76,7.2,15.5,82.9,1014.32,0,0,0,0,0.030479
2022/05/28 01:39:00.004,n,243,2.52,1.8,3.24,15.5,82.8,1014.32,0,0,0,0,0.028763
2022/05/28 01:40:00.001,n,265,4.68,1.8,5.76,15.5,82.8,1014.32,0,0,0,0,0.027885
2022/05/28 01:41:00.000,n,243,7.56,4.68,10.08,15.5,82.8,1014.32,0,0,0,0,0.026131
2022/05/28 01:42:00.000,n,250,8.28,6.48,10.08,15.5,82.7,1014.22,0,0,0,0,0.025291
2022/05/28 01:43:00.000,n,264,6.12,5.04,7.56,15.5,82.7,1014.22,0,0,0,0,0.028763
2022/05/28 01:44:00.006,n,249,5.76,3.96,7.92,15.6,82.6,1014.22,0,0,0,0,0.030479
2022/05/28 01:45:00.003,n,268,6.84,6.12,7.56,15.6,82.6,1014.22,0,0,0,0,0.028763
2022/05/28 01:46:00.000,n,242,5.4,1.8,6.84,15.6,82.6,1014.22,0,0,0,0,0.027885
2022/05/28 01:47:00.013,n,230,4.68,3.6,5.76,15.6,82.5,1014.22,0,0,0,0,0.030479
2022/05/28 01:48:00.011,n,254,7.2,6.48,7.56,15.6,82.5,1014.22,0,0,0,0,0.025291
2022/05/28 01:49:00.000,n,165,4.68,1.8,10.8,15.6,82.5,1014.22,0,0,0,0,0.024414
2022/05/28 01:50:00.000,n,235,2.52,1.8,3.6,15.7,82.5,1014.12,0,0,0,0,0.024414
2022/05/28 01:51:00.001,n,255,3.6,2.52,4.32,15.7,82.4,1014.12,0,0,0,0,0.028763
2022/05/28 01:52:00.000,n,279,5.76,5.04,6.48,15.7,82.6,1014.12,0,0,0,0,0.022659
2022/05/28 01:53:00.000,n,263,4.68,3.6,5.4,15.7,82.2,1014.12,0,0,0,0,0.023537
2022/05/28 01:54:00.009,n,217,5.04,3.96,6.48,15.7,82.1,1014.12,0,0,0,0,0.024414
2022/05/28 01:55:00.006,n,226,3.6,2.16,4.68,15.7,81.9,1014.12,0,0,0,0,0.027008
2022/05/28 01:56:00.003,n,144,2.52,1.44,3.6,15.7,81.9,1014.12,0,0,0,0,0.023537
2022/05/28 01:57:00.000,n,261,5.4,3.6,6.84,15.7,81.7,1014.12,0,0,0,0,0.025291
2022/05/28 01:58:00.000,n,274,2.88,1.08,4.32,15.7,81.7,1014.12,0,0,0,0,0.023537
2022/05/28 01:59:00.000,n,274,4.32,3.96,4.68,15.7,81.6,1014.12,0,0,0,0,0.025291
2022/05/28 02:00:00.000,n,282,5.04,4.68,5.76,15.7,81.6,1014.12,0,0,0,0,0.021782
2022/05/28 02:01:00.005,n,239,4.32,3.6,4.68,15.7,81.5,1014.12,0,0,0,0,0.024414
2022/05/28 02:02:00.004,n,293,5.04,4.32,5.76,15.7,81.7,1014.22,0,0,0,0,0.026131
2022/05/28 02:03:00.000,n,265,5.04,1.8,6.48,15.7,81.5,1014.22,0,0,0,0,0.026131
2022/05/28 02:04:00.000,n,210,3.24,1.44,4.68,15.7,81.7,1014.22,0,0,0,0,0.022659
2022/05/28 02:05:00.012,n,209,2.88,1.44,4.32,15.7,81.6,1014.22,0,0,0,0,0.022659
2022/05/28 02:06:00.013,n,248,4.32,1.8,4.68,15.7,81.5,1014.22,0,0,0,0,0.027924
2022/05/28 02:07:00.000,n,270,4.68,4.32,5.04,15.7,81.6,1014.22,0,0,0,0,0.030518
2022/05/28 02:08:00.000,n,140,2.88,1.8,3.24,15.7,81.5,1014.22,0,0,0,0,0.032272
2022/05/28 02:09:00.001,n,174,2.52,1.44,3.6,15.7,81.5,1014.12,0,0,0,0,0.035706
2022/05/28 02:10:00.000,n,163,5.04,1.44,7.2,15.7,81.7,1014.12,0,0,0,0,0.032272
2022/05/28 02:11:00.000,n,168,2.52,0.72,4.68,15.7,81.7,1014.12,0,0,0,0,0.032272
2022/05/28 02:12:00.009,n,296,1.8,1.08,2.52,15.7,81.9,1014.12,0,0,0,0,0.031357
2022/05/28 02:13:00.006,n,124,1.8,1.8,2.16,15.7,81.7,1014.12,0,0,0,0,0.030518
2022/05/28 02:14:00.003,n,133,5.04,2.52,6.12,15.7,81.7,1014.12,0,0,0,0,0.02964
2022/05/28 02:15:00.000,n,147,2.88,1.08,6.84,15.6,81.8,1014.12,0,0,0,0,0.028763
2022/05/28 02:16:00.000,n,175,6.84,3.6,8.28,15.6,81.8,1014.12,0,0,0,0,0.028763
2022/05/28 02:17:00.000,n,192,3.96,2.16,6.12,15.6,81.8,1014.12,0,0,0,0,0.030518
2022/05/28 02:18:00.000,n,106,3.24,2.52,3.96,15.6,81.9,1014.12,0,0,0,0,0.032272
2022/05/28 02:19:00.004,n,132,3.6,2.88,4.32,15.6,82.1,1014.12,0,0,0,0,0.031357
2022/05/28 02:20:00.001,n,143,6.12,5.76,6.48,15.5,82.2,1014.12,0,0,0,0,0.031357
2022/05/28 02:21:00.000,n,135,4.68,4.32,4.68,15.5,82.1,1014.12,0,0,0,0,0.030518
2022/05/28 02:22:00.011,n,163,3.96,2.88,7.56,15.4,82.3,1014.12,0,0,0,0,0.031357
2022/05/28 02:23:00.009,n,140,3.96,3.6,4.32,15.4,82.4,1014.12,0,0,0,0,0.027008
2022/05/28 02:24:00.006,n,212,5.04,3.96,5.4,15.3,82.8,1014.12,0,0,0,0,0.027924
2022/05/28 02:25:00.000,n,164,5.76,2.88,10.08,15.3,83,1014.12,0,0,0,0,0.02964
2022/05/28 02:26:00.000,n,157,5.04,1.44,10.8,15.3,83,1014.02,0,0,0,0,0.027924
2022/05/28 02:27:00.000,n,166,9,5.76,11.16,15.3,83,1014.02,0,0,0,0,0.028763
2022/05/28 02:28:00.000,n,202,5.4,3.6,9.36,15.3,83.1,1014.02,0,0,0,0,0.027924
2022/05/28 02:29:00.006,n,157,4.32,2.52,7.92,15.2,83.2,1014.02,0,0,0,0,0.027008
2022/05/28 02:30:00.004,n,182,5.76,5.04,7.92,15.2,83.3,1013.92,0,0,0,0,0.028763
2022/05/28 02:31:00.001,n,321,2.16,1.44,3.6,15.2,83.3,1013.92,0,0,0,0,0.027924
2022/05/28 02:32:00.014,n,159,5.4,2.88,8.28,15.2,83.3,1013.92,0,0,0,0,0.027008
2022/05/28 02:33:00.011,n,167,7.92,4.32,11.52,15.3,83.3,1013.92,0,0,0,0,0.02964
2022/05/28 02:34:00.000,n,151,4.68,4.32,5.4,15.2,83.3,1014.02,0,0,0,0,0.025291
2022/05/28 02:35:00.000,n,165,6.48,2.88,8.28,15.2,83.3,1014.02,0,0,0,0,0.024414
2022/05/28 02:36:00.004,n,165,4.68,4.68,4.68,15.2,83.2,1014.02,0,0,0,0,0.023537
2022/05/28 02:37:00.001,n,147,4.68,4.32,5.04,15.2,83.2,1014.02,0,0,0,0,0.020065
2022/05/28 02:38:00.000,n,168,7.56,6.48,8.64,15.2,83.3,1014.02,0,0,0,0,0.023537
2022/05/28 02:39:00.000,n,186,3.96,1.08,7.92,15.2,83.3,1014.02,0,0,0,0,0.026131
2022/05/28 02:40:00.009,n,142,2.16,0.72,5.4,15.2,83.4,1013.92,0,0,0,0,0.025291
2022/05/28 02:41:00.005,n,144,3.6,3.24,3.96,15.2,83.4,1013.92,0,0,0,0,0.025291
2022/05/28 02:42:00.003,n,156,5.4,3.24,11.52,15.2,83.4,1013.92,0,0,0,0,0.022659
2022/05/28 02:43:00.001,n,171,6.12,4.68,10.440002,15.2,83.5,1013.92,0,0,0,0,0.025291
2022/05/28 02:44:00.000,n,141,4.32,3.24,6.12,15.2,83.4,1013.92,0,0,0,0,0.021782
2022/05/28 02:45:00.000,n,38,0.72,0.36,1.44,15.1,83.4,1013.92,0,0,0,0,0.022659
2022/05/28 02:46:00.000,n,173,6.84,4.32,10.08,15.1,83.5,1013.92,0,0,0,0,0.021782
2022/05/28 02:47:00.005,n,166,9,7.56,12.24,15.1,83.5,1013.92,0,0,0,0,0.020065
2022/05/28 02:48:00.003,n,155,3.6,2.16,5.4,15.2,83.5,1013.92,0,0,0,0,0.018349
2022/05/28 02:49:00.000,n,161,6.48,2.88,7.2,15.2,83.5,1013.92,0,0,0,0,0.026131
2022/05/28 02:50:00.009,n,141,1.8,0.36,3.24,15.2,83.4,1013.92,0,0,0,0,0.028725
2022/05/28 02:51:00.007,n,154,5.04,1.44,6.12,15.2,83.3,1013.92,0,0,0,0,0.028725
2022/05/28 02:52:00.000,n,169,5.04,2.52,6.48,15.2,83.3,1013.92,0,0,0,0,0.027847
2022/05/28 02:53:00.001,n,162,5.76,3.24,8.28,15.2,83.3,1013.92,0,0,0,0,0.024376
2022/05/28 02:54:00.000,n,155,6.48,4.68,9.36,15.2,83.2,1013.92,0,0,0,0,0.025215
2022/05/28 02:55:00.000,n,168,8.64,5.4,10.8,15.1,83.2,1013.92,0,0,0,0,0.028725
2022/05/28 02:56:00.008,n,162,5.4,4.32,9.36,15.1,83.3,1013.92,0,0,0,0,0.028725
2022/05/28 02:57:00.005,n,159,4.32,3.6,5.04,15.1,83.4,1013.92,0,0,0,0,0.028725
2022/05/28 02:58:00.002,n,167,6.84,5.04,11.52,15.1,83.4,1013.92,0,0,0,0,0.031357
2022/05/28 02:59:00.000,n,166,7.92,5.76,12.24,15.1,83.3,1014.02,0,0,0,0,0.027008
2022/05/28 03:00:00.014,n,174,6.84,4.68,10.440002,15.1,83.4,1014.02,0,0,0,0,0.028725
2022/05/28 03:01:00.000,n,154,6.12,5.4,6.84,15.1,83.4,1013.92,0,0,0,0,0.026131
2022/05/28 03:02:00.000,n,134,5.76,5.4,6.12,15.1,83.4,1013.92,0,0,0,0,0.027008
2022/05/28 03:03:00.005,n,161,6.84,4.68,11.52,15.1,83.3,1013.92,0,0,0,0,0.025215
2022/05/28 03:04:00.002,n,173,5.76,2.52,9,15.1,83.4,1013.92,0,0,0,0,0.024376
2022/05/28 03:05:00.000,n,151,5.76,3.24,10.8,15.1,83.4,1013.92,0,0,0,0,0.025215
2022/05/28 03:06:00.000,n,160,6.12,3.96,9.72,15.1,83.4,1013.92,0,0,0,0,0.027008
2022/05/28 03:07:00.009,n,167,7.92,5.4,11.52,15.1,83.5,1013.92,0,0,0,0,0.024376
2022/05/28 03:08:00.010,n,156,7.2,5.04,10.8,15.1,83.4,1013.92,0,0,0,0,0.027008
2022/05/28 03:09:00.004,n,159,5.76,5.4,6.12,15.1,83.4,1013.92,0,0,0,0,0.025215
2022/05/28 03:10:00.001,n,135,5.04,4.68,5.76,15.1,83.4,1013.92,0,0,0,0,0.01915
2022/05/28 03:11:00.000,n,164,7.56,5.4,11.52,15.1,83.5,1013.92,0,0,0,0,0.025215
2022/05/28 03:12:00.000,n,162,5.4,5.04,5.4,15.1,83.6,1014.02,0,0,0,0,0.022621
2022/05/28 03:13:00.000,n,134,3.24,2.52,3.96,15.1,83.6,1014.02,0,0,0,0,0.023499
2022/05/28 03:14:00.007,n,153,4.32,2.88,7.92,15.1,83.6,1014.02,0,0,0,0,0.023499
2022/05/28 03:15:00.005,n,161,5.76,4.32,9.72,15.1,83.6,1013.92,0,0,0,0,0.026131
2022/05/28 03:16:00.001,n,144,3.6,2.52,7.92,15.1,83.7,1013.92,0,0,0,0,0.024376
2022/05/28 03:17:00.000,n,168,7.92,4.32,9.36,15.1,83.7,1013.92,0,0,0,0,0.026131
2022/05/28 03:18:00.012,n,165,6.84,3.96,8.64,15.1,83.9,1013.92,0,0,0,0,0.022621
2022/05/28 03:19:00.000,n,175,5.76,2.88,7.2,15.1,83.9,1013.92,0,0,0,0,0.020866
2022/05/28 03:20:00.000,n,213,1.8,0.72,8.28,15.1,83.9,1013.92,0,0,0,0,0.022621
2022/05/28 03:21:00.003,n,176,7.2,4.32,9,15.1,83.9,1013.92,0,0,0,0,0.021782
2022/05/28 03:22:00.000,n,161,7.56,4.32,10.08,15.1,83.8,1013.82,0,0,0,0,0.023499
2022/05/28 03:23:00.000,n,166,3.6,2.52,4.32,15.1,83.9,1013.82,0,0,0,0,0.021782
2022/05/28 03:24:00.010,n,178,5.76,4.32,7.56,15.1,83.8,1013.82,0,0,0,0,0.022621
2022/05/28 03:25:00.007,n,149,5.76,3.24,7.56,15.1,83.8,1013.82,0,0,0,0,0.01915
2022/05/28 03:26:00.004,n,176,4.32,2.52,5.76,15.1,83.8,1013.82,0,0,0,0,0.022621
2022/05/28 03:27:00.001,n,166,7.2,5.4,9,15.1,83.7,1013.82,0,0,0,0,0.030479
2022/05/28 03:28:00.000,n,357,1.08,0.36,1.44,15.1,83.8,1013.82,0,0,0,0,0.034866
2022/05/28 03:29:00.000,n,283,1.8,1.08,2.52,15.1,83.7,1013.72,0,0,0,0,0.034866
2022/05/28 03:30:00.005,n,141,2.52,1.08,3.6,15.1,83.7,1013.72,0,0,0,0,0.031357
2022/05/28 03:31:00.001,n,173,5.4,2.52,8.28,15.1,83.6,1013.72,0,0,0,0,0.030479
2022/05/28 03:32:00.000,n,149,3.6,2.16,8.28,15.1,83.5,1013.72,0,0,0,0,0.035706
2022/05/28 03:33:00.000,n,163,6.84,4.68,10.8,15.1,83.5,1013.72,0,0,0,0,0.032234
2022/05/28 03:34:00.009,n,189,2.88,2.16,4.32,15.1,83.5,1013.62,0,0,0,0,0.033073
2022/05/28 03:35:00.006,n,154,3.6,1.8,6.84,15.1,83.4,1013.62,0,0,0,0,0.031357
2022/05/28 03:36:00.003,n,213,2.88,1.8,5.4,15.1,83.4,1013.62,0,0,0,0,0.033073
2022/05/28 03:37:00.000,n,217,0.72,0.36,1.08,15.1,83.4,1013.62,0,0,0,0,0.030479
2022/05/28 03:38:00.000,n,170,5.04,3.96,8.28,15.1,83.4,1013.52,0,0,0,0,0.02964
2022/05/28 03:39:00.000,n,157,3.6,1.44,6.48,15.1,83.5,1013.52,0,0,0,0,0.031357
2022/05/28 03:40:00.000,n,168,8.64,5.04,11.16,15.1,83.5,1013.52,0,0,0,0,0.033073
2022/05/28 03:41:00.006,n,124,1.08,0.36,1.8,15.1,83.4,1013.52,0,0,0,0,0.033073
2022/05/28 03:42:00.003,n,174,3.6,1.08,6.48,15.1,83.4,1013.42,0,0,0,0,0.033073
2022/05/28 03:43:00.000,n,159,3.96,1.08,5.76,15.1,83.6,1013.42,0,0,0,0,0.034866
2022/05/28 03:44:00.013,n,146,2.52,1.08,6.48,15.1,83.6,1013.42,0,0,0,0,0.031357
2022/05/28 03:45:00.009,n,198,2.88,2.16,3.96,15.1,83.5,1013.42,0,0,0,0,0.032234
2022/05/28 03:46:00.000,n,164,3.24,1.8,6.12,15.1,83.6,1013.42,0,0,0,0,0.035706
2022/05/28 03:47:00.000,n,167,3.6,2.16,5.4,15.1,83.5,1013.42,0,0,0,0,0.030479
2022/05/28 03:48:00.002,n,174,3.96,1.44,6.48,15.1,83.5,1013.32,0,0,0,0,0.035706
2022/05/28 03:49:00.000,n,175,3.24,2.52,3.24,15.1,83.6,1013.32,0,0,0,0,0.02964
2022/05/28 03:50:00.000,n,134,2.16,0.36,5.76,15.1,83.5,1013.32,0,0,0,0,0.033073
2022/05/28 03:51:00.010,n,24,2.16,0.36,7.2,15.1,83.5,1013.32,0,0,0,0,0.031357
2022/05/28 03:52:00.007,n,160,3.24,1.08,4.68,15,83.5,1013.32,0,0,0,0,0.033989
2022/05/28 03:53:00.004,n,167,6.12,3.24,8.28,15,83.6,1013.32,0,0,0,0,0.033073
2022/05/28 03:54:00.001,n,303,0.36,0.36,0.36,15,83.6,1013.32,0,0,0,0,0.034866
2022/05/28 03:55:00.000,n,125,5.04,3.96,5.76,15,83.6,1013.32,0,0,0,0,0.031357
2022/05/28 03:56:00.000,n,130,3.6,1.44,5.04,15,83.7,1013.32,0,0,0,0,0.033989
2022/05/28 03:57:00.000,n,123,1.8,1.44,2.52,15,83.8,1013.32,0,0,0,0,0.033073
2022/05/28 03:58:00.005,n,171,3.96,3.24,7.2,15,83.7,1013.32,0,0,0,0,0.031357
2022/05/28 03:59:00.003,n,133,2.52,2.16,2.88,15,83.8,1013.42,0,0,0,0,0.032234
2022/05/28 04:00:00.000,n,256,5.76,5.04,6.84,15,83.8,1013.42,0,0,0,0,0.033073
2022/05/28 04:01:00.000,n,177,1.8,0.36,5.04,15,83.8,1013.42,0,0,0,0,0.028725
2022/05/28 04:02:00.011,n,150,5.4,4.32,8.64,15,83.8,1013.42,0,0,0,0,0.033073
2022/05/28 04:03:00.008,n,161,5.4,3.6,9.36,15,83.8,1013.42,0,0,0,0,0.033073
2022/05/28 04:04:00.000,n,177,6.48,3.96,8.64,15,83.8,1013.42,0,0,0,0,0.033073
2022/05/28 04:05:00.001,n,279,1.08,0.72,1.44,15,83.8,1013.42,0,0,0,0,0.031357
2022/05/28 04:06:00.000,n,144,4.32,2.52,6.12,15,83.9,1013.32,0,0,0,0,0.032234
2022/05/28 04:07:00.000,n,142,6.12,4.32,11.52,15,83.9,1013.32,0,0,0,0,0.033073
2022/05/28 04:08:00.008,n,224,6.12,5.4,6.84,15,83.9,1013.32,0,0,0,0,0.030479
2022/05/28 04:09:00.006,n,166,5.4,1.8,8.64,15,83.9,1013.32,0,0,0,0,0.031357
2022/05/28 04:10:00.002,n,175,8.64,5.4,11.16,15,84,1013.32,0,0,0,0,0.032234
2022/05/28 04:11:00.000,n,176,3.6,0.36,7.56,15,83.9,1013.32,0,0,0,0,0.031357
2022/05/28 04:12:00.013,n,159,4.68,2.52,7.56,14.9,83.9,1013.32,0,0,0,0,0.02964
2022/05/28 04:13:00.000,n,153,6.12,4.32,9.72,14.9,83.8,1013.32,0,0,0,0,0.027885
2022/05/28 04:14:00.000,n,157,6.12,5.04,10.08,14.9,83.8,1013.32,0,0,0,0,0.033989
2022/05/28 04:15:00.004,n,165,10.440002,6.84,12.96,14.9,83.9,1013.32,0,0,0,0,0.033989
2022/05/28 04:16:00.001,n,151,5.4,5.04,7.56,14.9,83.9,1013.32,0,0,0,0,0.031357
2022/05/28 04:17:00.000,n,180,7.56,4.32,10.440002,14.8,84,1013.32,0,0,0,0,0.031357
2022/05/28 04:18:00.000,n,167,11.16,8.28,12.24,14.8,84.1,1013.32,0,0,0,0,0.031357
2022/05/28 04:19:00.008,n,162,5.4,2.16,7.2,14.8,84.1,1013.32,0,0,0,0,0.030479
2022/05/28 04:20:00.006,n,210,2.16,1.08,4.32,14.8,84.2,1013.32,0,0,0,0,0.032234
2022/05/28 04:21:00.002,n,159,4.32,0.36,6.48,14.8,84.2,1013.42,0,0,0,0,0.031357
2022/05/28 04:22:00.000,n,153,3.96,1.44,5.76,14.9,84.2,1013.42,0,0,0,0,0.030479
2022/05/28 04:23:00.000,n,179,2.16,1.08,4.32,14.8,84.2,1013.42,0,0,0,0,0.030479
2022/05/28 04:24:00.000,n,304,2.88,2.52,3.24,14.8,84.2,1013.42,0,0,0,0,0.027885
2022/05/28 04:25:00.006,n,180,2.52,1.44,3.6,14.8,84.2,1013.42,0,0,0,0,0.028725
2022/05/28 04:26:00.003,n,233,2.16,1.8,3.6,14.8,84.3,1013.42,0,0,0,0,0.030479
2022/05/28 04:27:00.001,n,271,4.68,4.32,5.04,14.8,84.2,1013.42,0,0,0,0,0.031357
2022/05/28 04:28:00.000,n,248,3.96,2.16,5.4,14.8,84.2,1013.42,0,0,0,0,0.027008
2022/05/28 04:29:00.012,n,201,2.88,2.16,3.24,14.8,84.3,1013.32,0,0,0,0,0.031357
2022/05/28 04:30:00.009,n,290,3.6,2.88,4.68,14.8,84.3,1013.32,0,0,0,0,0.030479
2022/05/28 04:31:00.000,n,274,4.68,3.6,6.48,14.8,84.4,1013.32,0,0,0,0,0.02964
2022/05/28 04:32:00.000,n,287,3.6,1.8,3.96,14.8,84.3,1013.32,0,0,0,0,0.032234
2022/05/28 04:33:00.000,n,140,2.88,2.16,3.6,14.8,84.2,1013.32,0,0,0,0,0.030479
2022/05/28 04:34:00.000,n,292,2.52,1.8,2.88,14.8,84.2,1013.32,0,0,0,0,0.02964
2022/05/28 04:35:00.000,n,259,4.68,1.08,5.76,14.8,84.3,1013.32,0,0,0,0,0.031357
2022/05/28 04:36:00.008,n,153,4.68,2.88,6.12,14.8,84.3,1013.32,0,0,0,0,0.032234
2022/05/28 04:37:00.005,n,135,1.44,1.08,2.16,14.8,84.5,1013.32,0,0,0,0,0.033073
2022/05/28 04:38:00.002,n,146,3.6,1.44,5.04,14.8,84.3,1013.32,0,0,0,0,0.027885
2022/05/28 04:39:00.015,n,175,3.24,2.16,4.32,14.8,84.4,1013.32,0,0,0,0,0.027885
2022/05/28 04:40:00.000,n,117,1.44,0.36,2.52,14.8,84.3,1013.32,0,0,0,0,0.030479
2022/05/28 04:41:00.000,n,288,1.44,1.08,2.16,14.8,84.6,1013.42,0,0,0,0,0.028725
2022/05/28 04:42:00.000,n,232,1.08,0.36,3.24,14.9,84.5,1013.42,0,0,0,0,0.031357
2022/05/28 04:43:00.004,n,198,2.88,1.8,3.96,14.9,84.3,1013.42,0,0,0,0,0.026131
2022/05/28 04:44:00.002,n,267,5.04,0.72,6.12,14.8,84.3,1013.42,0,0,0,0,0.032234
2022/05/28 04:45:00.000,n,278,4.32,2.88,6.12,14.8,84.3,1013.42,0,0,0,0,0.027885
2022/05/28 04:46:00.011,n,268,7.56,6.48,8.64,14.8,84.2,1013.42,0,0,0,0,0.030479
2022/05/28 04:47:00.008,n,298,3.96,2.88,5.04,14.8,84.2,1013.42,0,0,0,0,0.027008
2022/05/28 04:48:00.005,n,169,4.32,1.44,6.84,14.8,84.3,1013.52,0,0,0,0,0.02964
2022/05/28 04:49:00.000,n,252,1.44,0.72,2.88,14.8,84.3,1013.52,0,0,0,0,0.028725
2022/05/28 04:50:00.000,n,140,1.44,0.72,4.32,14.8,84.3,1013.52,0,0,0,0,0.030479
2022/05/28 04:51:00.000,n,143,4.32,3.96,4.68,14.8,84.4,1013.52,0,0,0,0,0.027885
2022/05/28 04:52:00.000,n,136,5.4,3.96,6.12,14.8,84.4,1013.52,0,0,0,0,0.028725
2022/05/28 04:53:00.007,n,131,3.24,2.52,3.6,14.8,84.3,1013.52,0,0,0,0,0.032234
2022/05/28 04:54:00.004,n,163,5.76,3.96,10.8,14.8,84.2,1013.52,0,0,0,0,0.025291
2022/05/28 04:55:00.001,n,131,2.88,1.08,4.32,14.8,84.3,1013.52,0,0,0,0,0.030479